星链-31632 (STARLINK-31632 )

导读 | 豆包AI

STARLINK-31632是美国太空探索技术公司(SpaceX)Starlink星座的卫星,该星座计划打造覆盖全球的低轨卫星互联网。它于2024年3月25日发射,属于Starlink v2.0 mini版本,运行在近地轨道。截至2026年3月,这颗卫星已在轨运行近两年,为全球用户提供高速互联网接入服务,是SpaceX星链网络的重要组成部分。

基本信息
目录编号:
59326
目录名称:
STARLINK-31632
国际标识:
2024-057G
轨道中心:
EARTH
卫星名称:
星链-31632
卫星全名:
星链-31632 (STARLINK-31632 )
卫星状态:
在轨 (已飞行720 天)
发射日期:
2024-03-25 UTC
国别 :
美国 (US)
星等 :
--
轨道信息
数据来源 国际轨道数据
星历时间: 2026-03-15T22:30:20+0800
7小时前
查看轨道信息
半长轴: 6861.259km
偏心率: 0.0001239
轨道倾角: 43.001°
近地点辐角 252.682°
升交点赤经 164.915°
平近点角 107.390°
近地点: 482.271km
远地点: 483.973km
周期: 94.268分钟
每日圈数: 15.275559
详细信息
固有亮度:
5
最大亮度:
0.3
卫星平台:
Starlink v2.0 mini
覆盖范围:
全球
运营商:
太空探索技术公司
运营商所在国:
美国
制造商(研发单位):
太空探索技术公司
制造商所在国:
美国
使用方式:
暂无
卫星简介
星链(Starlink)计划是由太空探索技术公司(SpaceX)提出的一个巨型低轨卫星互联网星座项目,计划在2019年至2024年间在太空搭建由约1.2万颗卫星组成的“星链”网络,其中1584颗将部署在地球上空550千米处的近地轨道,并从2020年开始工作。该卫星仍在工作。
2D轨道图
3D轨道图
轨道高度分析图
轨道倾角分析图
轨道综合分析图
查看轨道综合分析图